Location: Essen
(51.4609°N, 7.0127°E)
Time: 03:35:31
(UTC+02:00)

ISS - Visible Passes

Search period start: 21 September 2017 00:00
Search period end: 01 October 2017 00:00
Orbit: 402 x 407 km, 51.6° (Epoch: 21 September)

Date Brightness Start Highest point End Pass type
(mag) Time Alt. Az. Time Alt. Az. Time Alt. Az.
25 Sep -1.1 21:19:20 10° SSW 21:19:25 10° SSW 21:19:25 10° SSW visible
26 Sep -1.8 20:28:01 10° S 20:29:44 14° SE 20:29:44 14° SE visible
27 Sep -2.7 21:10:20 10° SW 21:12:33 30° S 21:12:33 30° S visible
28 Sep -2.5 20:18:24 10° SSW 20:21:06 24° SSE 20:22:31 18° ESE visible
28 Sep -1.5 21:53:59 10° WSW 21:55:11 21° WSW 21:55:11 21° WSW visible
29 Sep -3.8 21:01:40 10° WSW 21:04:53 56° SSE 21:05:00 56° SSE visible
30 Sep -3.2 20:09:26 10° SW 20:12:32 40° SSE 20:14:44 17° E visible
30 Sep -2.0 21:45:35 10° W 21:47:22 30° W 21:47:22 30° W visible
